Powrót do katalogu

STARLINK-33774

AktywnyŁącznośćVLEO
NORAD 63721·PAYLOAD·🇺🇸 United States

Wystrzelony Apr 28, 2025 z Vandenberg Space Force Base

Loading…

Następne Przeloty (najbliższe 24 godziny)

TLE

ŚwieżeSource: CelesTrak SupGP

Epoka: Sep 14, 2026, 20:43 UTC

1 63721C 25087AA  26257.86368056  .00021546  00000+0  69299-3 0  2577
2 63721  53.1586  59.5306 0001073  81.0308 213.1642 15.31685998    13

Śledź STARLINK-33774 w czasie rzeczywistym z AllMySat

Download on the App Store